New York, NY

7:01 AM EST on December 11, 2016 (GMT -0500)
Central Park

Weather History for KNYC - March, 2010

Change the Weather History Date:

Thursday, March 4, 2010

  Actual Average Record
Temperature  
Mean Temperature 41 °F 39 °F  
Max Temperature 47 °F 46 °F 70 °F (1974)
Min Temperature 35 °F 32 °F 7 °F (1943)
Degree Days  
Heating Degree Days 24 26  
Month to date heating degree days 97 106  
Since 1 July heating degree days 3629 3628  
Cooling Degree Days 0 0  
Month to date cooling degree days 0 0  
Year to date cooling degree days 0 0  
Moisture  
Dew Point 24 °F    
Average Humidity 51    
Maximum Humidity 64    
Minimum Humidity 38    
Precipitation  
Precipitation 0.00 in 0.13 in 1.65 in (1977)
Month to date precipitation 0.08 0.50  
Year to date precipitation 8.85 7.24  
Snow  
Snow 0.00 in 0.20 in 6.00 in (1917)
Month to date snowfall T 0.8  
Since 1 July snowfall 51.4 22.1  
Snow Depth 0.00 in    
Sea Level Pressure  
Sea Level Pressure 29.69 in    
Wind  
Wind Speed 8 mph (North)    
Max Wind Speed 17 mph    
Max Gust Speed 24 mph    
Visibility 10 miles    
Events      
T = Trace of Precipitation, MM = Missing Value Source: NWS Daily Summary

Daily Weather History Graph

Daily Weather History Graph

Search for Another Location

Airport or City:

Trip Planner

Search our weather history database for the weather conditions in past years. The results will help you decide how hot, cold, wet, or windy it might be!

Date:

Astronomy

Mar. 04, 2010 Rise Set
Actual Time 6:25 AM EST 5:50 PM EST
Civil Twilight 5:57 AM EST 6:17 PM EST
Nautical Twilight 5:26 AM EST 6:49 PM EST
Astronomical Twilight 4:54 AM EST 7:21 PM EST
Moon 11:05 PM EST (3/4) 8:08 AM EST (3/4)
Length of Visible Light 12h 19m
Length of Day
11h 25m
Waning Gibbous, 79% of the Moon is Illuminated
Mar 4
Waning Gibbous
Mar 7
Last Quarter
Mar 15
New
Mar 23
First Quarter
Mar 29
Full

Hourly Weather History & Observations

Time (EST) Temp. Windchill Dew Point Humidity Pressure Visibility Wind Dir Wind Speed Gust Speed Precip Events Conditions
12:51 AM 39.0 °F 33.4 °F 27.0 °F 62% 29.59 in 10.0 mi NNW 8.1 mph - N/A   Overcast
1:51 AM 37.9 °F 32.7 °F 26.1 °F 62% 29.60 in 10.0 mi Variable 6.9 mph - N/A   Overcast
2:51 AM 37.0 °F 33.3 °F 26.1 °F 65% 29.60 in 10.0 mi Variable 4.6 mph - N/A   Scattered Clouds
3:51 AM 37.0 °F 29.3 °F 26.1 °F 65% 29.61 in 10.0 mi NW 11.5 mph 17.3 mph N/A   Mostly Cloudy
4:51 AM 37.0 °F 31.0 °F 25.0 °F 62% 29.62 in 10.0 mi NNW 8.1 mph 17.3 mph N/A   Mostly Cloudy
5:51 AM 37.0 °F 29.8 °F 24.1 °F 59% 29.62 in 10.0 mi NW 10.4 mph 18.4 mph N/A   Overcast
6:51 AM 37.0 °F 31.6 °F 24.1 °F 59% 29.64 in 10.0 mi Variable 6.9 mph - N/A   Mostly Cloudy
7:51 AM 37.0 °F 33.3 °F 24.1 °F 59% 29.66 in 10.0 mi Variable 4.6 mph - N/A   Overcast
8:51 AM 39.0 °F 33.4 °F 25.0 °F 57% 29.66 in 10.0 mi NNW 8.1 mph - N/A   Overcast
9:51 AM 39.9 °F 33.9 °F 24.1 °F 53% 29.67 in 10.0 mi North 9.2 mph 18.4 mph N/A   Overcast
10:51 AM 41.0 °F 38.0 °F 24.1 °F 51% 29.67 in 10.0 mi Variable 4.6 mph - N/A   Overcast
11:51 AM 43.0 °F 38.8 °F 24.1 °F 47% 29.67 in 10.0 mi Variable 6.9 mph 17.3 mph N/A   Overcast
12:51 PM 44.1 °F 40.8 °F 23.0 °F 43% 29.65 in 10.0 mi Variable 5.8 mph 16.1 mph N/A   Overcast
1:51 PM 46.9 °F - 24.1 °F 41% 29.65 in 10.0 mi North 8.1 mph - N/A   Mostly Cloudy
2:51 PM 46.0 °F 43.1 °F 24.1 °F 42% 29.67 in 10.0 mi Variable 5.8 mph - N/A   Mostly Cloudy
3:51 PM 46.9 °F - 23.0 °F 39% 29.68 in 10.0 mi Variable 4.6 mph - N/A   Mostly Cloudy
4:51 PM 45.0 °F 40.1 °F 23.0 °F 42% 29.71 in 10.0 mi NNE 9.2 mph - N/A   Overcast
5:51 PM 43.0 °F 36.4 °F 19.0 °F 38% 29.75 in 10.0 mi NNE 12.7 mph 21.9 mph N/A   Overcast
6:51 PM 43.0 °F 38.2 °F 21.0 °F 42% 29.78 in 10.0 mi North 8.1 mph - N/A   Overcast
7:51 PM 42.1 °F 37.1 °F 21.0 °F 43% 29.80 in 10.0 mi NNE 8.1 mph 20.7 mph N/A   Overcast
8:51 PM 41.0 °F 34.3 °F 23.0 °F 49% 29.82 in 10.0 mi NNE 11.5 mph 17.3 mph N/A   Overcast
9:51 PM 39.0 °F 31.8 °F 25.0 °F 57% 29.84 in 10.0 mi NNE 11.5 mph 18.4 mph N/A   Overcast
10:51 PM 37.0 °F 31.0 °F 27.0 °F 67% 29.85 in 10.0 mi NNE 8.1 mph - N/A   Overcast
11:51 PM 35.1 °F 30.1 °F 28.0 °F 76% 29.86 in 10.0 mi Variable 5.8 mph - N/A   Overcast